Radiation Dose at Monitoring Post of Fukushima Daini Nuclear Power Station
Date,Time,MP-1(microSv/h),MP-2(microSv/h),MP-3(microSv/h),MP-4(microSv/h),MP-5(microSv/h),MP-6(microSv/h),MP-7(microSv/h),Wind Direction,Wind Velocity(m/s),Rain
2020/01/22,00:00,0.182,0.163,0.277,0.257,0.253,0.142,0.086,southwest,1.4,No
2020/01/22,00:10,0.183,0.162,0.277,0.257,0.253,0.141,0.087,west-southwest,0.9,No
2020/01/22,00:20,0.183,0.162,0.277,0.256,0.253,0.141,0.087,-,CALM,No
2020/01/22,00:30,0.183,0.162,0.277,0.257,0.253,0.140,0.087,-,CALM,No
2020/01/22,00:40,0.182,0.163,0.277,0.256,0.254,0.140,0.086,west-northwest,1.7,No
2020/01/22,00:50,0.182,0.162,0.277,0.257,0.252,0.141,0.086,west,3.9,No
2020/01/22,01:00,0.183,0.162,0.277,0.258,0.253,0.140,0.087,west-northwest,4.2,No
2020/01/22,01:10,0.182,0.163,0.276,0.258,0.253,0.141,0.087,west-northwest,4.3,No
2020/01/22,01:20,0.182,0.163,0.276,0.257,0.253,0.140,0.087,west,5.2,No
2020/01/22,01:30,0.184,0.162,0.276,0.257,0.254,0.140,0.086,west,5.2,No
2020/01/22,01:40,0.183,0.162,0.277,0.257,0.253,0.140,0.086,west,5.4,No
2020/01/22,01:50,0.182,0.162,0.277,0.257,0.254,0.140,0.087,west,4.7,No
2020/01/22,02:00,0.182,0.162,0.277,0.256,0.252,0.140,0.086,west,4.9,No
2020/01/22,02:10,0.181,0.164,0.276,0.256,0.252,0.140,0.086,west,4.2,No
2020/01/22,02:20,0.182,0.162,0.277,0.258,0.253,0.140,0.086,west,4.0,No
2020/01/22,02:30,0.182,0.162,0.277,0.258,0.253,0.140,0.086,west,3.1,No
2020/01/22,02:40,0.183,0.162,0.277,0.256,0.252,0.139,0.086,west-northwest,3.1,No
2020/01/22,02:50,0.182,0.163,0.277,0.256,0.251,0.140,0.086,west-northwest,2.8,No
2020/01/22,03:00,0.181,0.162,0.275,0.256,0.252,0.140,0.086,northwest,3.7,No
2020/01/22,03:10,0.182,0.162,0.278,0.256,0.253,0.140,0.086,northwest,4.1,No
2020/01/22,03:20,0.181,0.163,0.276,0.258,0.251,0.141,0.086,west-northwest,3.9,No
2020/01/22,03:30,0.182,0.162,0.276,0.257,0.253,0.140,0.086,west-northwest,5.6,No
2020/01/22,03:40,0.183,0.162,0.277,0.257,0.252,0.140,0.086,west-northwest,8.1,No
2020/01/22,03:50,0.182,0.163,0.276,0.256,0.254,0.140,0.086,west-northwest,7.0,No
2020/01/22,04:00,0.183,0.161,0.277,0.256,0.252,0.140,0.086,west-northwest,5.9,No
2020/01/22,04:10,0.183,0.163,0.278,0.257,0.253,0.139,0.086,west-northwest,5.8,No
2020/01/22,04:20,0.183,0.162,0.277,0.257,0.253,0.140,0.086,west-northwest,5.8,No
2020/01/22,04:30,0.181,0.162,0.277,0.256,0.253,0.140,0.086,west-northwest,6.6,No
2020/01/22,04:40,0.183,0.162,0.275,0.257,0.253,0.141,0.087,west-northwest,6.8,No
2020/01/22,04:50,0.183,0.162,0.275,0.256,0.252,0.140,0.086,west-northwest,6.9,No
2020/01/22,05:00,0.182,0.163,0.276,0.257,0.252,0.139,0.086,west-northwest,7.3,No
2020/01/22,05:10,0.182,0.162,0.277,0.256,0.252,0.141,0.086,west-northwest,6.8,No
2020/01/22,05:20,0.183,0.162,0.277,0.255,0.252,0.140,0.086,west-northwest,5.9,No
2020/01/22,05:30,0.181,0.161,0.276,0.256,0.253,0.140,0.085,west-northwest,6.2,No
2020/01/22,05:40,0.182,0.161,0.276,0.257,0.251,0.140,0.086,west-northwest,5.2,No
2020/01/22,05:50,0.183,0.163,0.276,0.257,0.251,0.141,0.086,west-northwest,5.0,No
2020/01/22,06:00,0.182,0.163,0.276,0.257,0.252,0.140,0.086,west-northwest,4.6,No
2020/01/22,06:10,0.182,0.162,0.276,0.255,0.251,0.140,0.086,northwest,5.3,No
2020/01/22,06:20,0.182,0.162,0.275,0.256,0.252,0.140,0.086,northwest,5.7,No
2020/01/22,06:30,0.181,0.162,0.276,0.257,0.252,0.139,0.086,northwest,4.2,No
2020/01/22,06:40,0.182,0.161,0.275,0.257,0.253,0.140,0.086,west-northwest,4.2,No
2020/01/22,06:50,0.183,0.162,0.276,0.256,0.252,0.140,0.085,west-northwest,4.0,No
2020/01/22,07:00,0.182,0.162,0.276,0.255,0.253,0.140,0.086,northwest,4.0,No
2020/01/22,07:10,0.182,0.162,0.277,0.256,0.253,0.140,0.085,west-northwest,3.3,No
2020/01/22,07:20,0.182,0.161,0.276,0.256,0.252,0.139,0.085,west-southwest,3.3,No
2020/01/22,07:30,0.181,0.162,0.277,0.255,0.253,0.140,0.086,west,2.9,No
2020/01/22,07:40,0.181,0.162,0.276,0.257,0.253,0.139,0.085,west,2.9,No
2020/01/22,07:50,0.182,0.162,0.277,0.256,0.252,0.140,0.086,west,3.4,No
2020/01/22,08:00,0.181,0.161,0.277,0.255,0.253,0.140,0.086,west,2.2,No
2020/01/22,08:10,0.182,0.162,0.276,0.255,0.252,0.140,0.086,west-northwest,2.2,No
2020/01/22,08:20,0.182,0.161,0.276,0.257,0.252,0.140,0.086,west-northwest,2.8,No
2020/01/22,08:30,0.182,0.161,0.275,0.255,0.253,0.140,0.086,northwest,2.9,No
2020/01/22,08:40,0.182,0.163,0.276,0.255,0.254,0.140,0.085,west-northwest,3.2,No
2020/01/22,08:50,0.182,0.163,0.276,0.255,0.252,0.139,0.085,northwest,1.9,No
2020/01/22,09:00,0.181,0.163,0.277,0.255,0.252,0.140,0.085,northwest,1.3,No
2020/01/22,09:10,0.181,0.162,0.276,0.257,0.253,0.139,0.087,-,CALM,No
2020/01/22,09:20,0.182,0.162,0.275,0.255,0.253,0.140,0.086,-,CALM,No
2020/01/22,09:30,0.182,0.162,0.278,0.255,0.253,0.139,0.085,east,0.6,No
2020/01/22,09:40,0.182,0.161,0.277,0.255,0.253,0.140,0.085,east,1.1,No
2020/01/22,09:50,0.182,0.162,0.275,0.254,0.253,0.140,0.086,east,1.6,No
2020/01/22,10:00,0.182,0.162,0.275,0.255,0.252,0.140,0.085,east,1.5,No
2020/01/22,10:10,0.181,0.161,0.276,0.255,0.254,0.139,0.086,east-southeast,2.0,No
2020/01/22,10:20,0.181,0.162,0.276,0.255,0.254,0.139,0.086,east-southeast,2.7,No
2020/01/22,10:30,0.181,0.162,0.275,0.256,0.253,0.140,0.086,east-southeast,3.3,No
2020/01/22,10:40,0.182,0.162,0.275,0.257,0.253,0.140,0.086,east-southeast,3.6,No
2020/01/22,10:50,0.181,0.163,0.276,0.256,0.254,0.140,0.086,east-southeast,2.8,No
2020/01/22,11:00,0.182,0.162,0.278,0.256,0.252,0.141,0.086,southeast,2.9,No
2020/01/22,11:10,0.181,0.161,0.275,0.257,0.254,0.140,0.085,south-southeast,3.6,No
2020/01/22,11:20,0.182,0.161,0.276,0.254,0.252,0.140,0.086,southeast,3.8,No
2020/01/22,11:30,0.181,0.162,0.276,0.256,0.252,0.141,0.086,southeast,4.6,No
2020/01/22,11:40,0.181,0.161,0.275,0.257,0.252,0.140,0.086,south-southeast,5.3,No
2020/01/22,11:50,0.182,0.163,0.275,0.256,0.253,0.140,0.085,south-southeast,5.1,No
2020/01/22,12:00,0.181,0.161,0.277,0.257,0.254,0.140,0.086,south-southeast,5.0,No
2020/01/22,12:10,0.182,0.162,0.274,0.256,0.252,0.141,0.086,south-southeast,5.9,No
2020/01/22,12:20,0.181,0.163,0.275,0.256,0.254,0.140,0.086,south-southeast,6.5,No
2020/01/22,12:30,0.181,0.162,0.277,0.257,0.254,0.140,0.086,south-southeast,6.7,No
2020/01/22,12:40,0.182,0.163,0.276,0.256,0.253,0.139,0.086,south-southeast,6.6,No
2020/01/22,12:50,0.182,0.162,0.277,0.257,0.253,0.141,0.086,south-southeast,7.0,No
2020/01/22,13:00,0.181,0.162,0.276,0.256,0.254,0.140,0.085,south-southeast,5.7,No
2020/01/22,13:10,0.182,0.162,0.276,0.257,0.254,0.141,0.086,south-southeast,8.7,No
2020/01/22,13:20,0.182,0.162,0.275,0.256,0.254,0.140,0.086,south-southeast,7.9,No
2020/01/22,13:30,0.182,0.162,0.276,0.257,0.254,0.141,0.086,south-southeast,8.4,No
2020/01/22,13:40,0.182,0.163,0.277,0.256,0.254,0.140,0.086,south,7.3,No
2020/01/22,13:50,0.182,0.162,0.275,0.257,0.254,0.139,0.087,south-southeast,6.3,No
2020/01/22,14:00,0.182,0.162,0.276,0.257,0.253,0.141,0.086,south,7.3,No
2020/01/22,14:10,0.183,0.163,0.276,0.257,0.254,0.141,0.087,south,4.9,No
2020/01/22,14:20,0.181,0.162,0.276,0.257,0.254,0.141,0.086,south,4.9,No
2020/01/22,14:30,0.182,0.163,0.276,0.256,0.255,0.140,0.086,south,3.2,No
2020/01/22,14:40,0.180,0.163,0.277,0.257,0.254,0.141,0.086,south-southwest,6.3,No
2020/01/22,14:50,0.182,0.163,0.275,0.257,0.255,0.141,0.086,south,4.7,No
2020/01/22,15:00,0.182,0.162,0.275,0.257,0.256,0.139,0.086,south,3.3,No
2020/01/22,15:10,0.182,0.163,0.277,0.256,0.254,0.140,0.086,south,6.8,No
2020/01/22,15:20,0.181,0.163,0.277,0.257,0.252,0.140,0.085,south,5.7,No
2020/01/22,15:30,0.182,0.162,0.277,0.258,0.255,0.140,0.085,south,5.8,No
2020/01/22,15:40,0.181,0.162,0.277,0.256,0.254,0.141,0.086,south,6.2,No
2020/01/22,15:50,0.182,0.164,0.276,0.258,0.254,0.141,0.086,south,5.7,No
2020/01/22,16:00,0.181,0.162,0.276,0.257,0.255,0.140,0.086,south,3.9,No
2020/01/22,16:10,0.182,0.163,0.277,0.257,0.253,0.140,0.086,south,4.6,No
2020/01/22,16:20,0.182,0.163,0.277,0.257,0.253,0.141,0.086,south,4.9,No
2020/01/22,16:30,0.182,0.163,0.276,0.258,0.254,0.140,0.086,south,5.1,No
2020/01/22,16:40,0.182,0.164,0.274,0.258,0.253,0.140,0.085,south,6.2,No
2020/01/22,16:50,0.183,0.163,0.277,0.257,0.253,0.140,0.087,south,7.5,No
2020/01/22,17:00,0.182,0.162,0.277,0.257,0.255,0.141,0.086,south-southwest,6.7,No
2020/01/22,17:10,0.183,0.163,0.276,0.256,0.254,0.141,0.086,south-southwest,6.6,No
2020/01/22,17:20,0.182,0.163,0.276,0.257,0.253,0.139,0.086,south-southwest,7.0,Yes
2020/01/22,17:30,0.183,0.163,0.277,0.258,0.255,0.141,0.087,south-southwest,6.2,No
2020/01/22,17:40,0.182,0.162,0.277,0.258,0.255,0.141,0.086,southwest,5.5,No
2020/01/22,17:50,0.182,0.163,0.276,0.259,0.253,0.141,0.086,southwest,4.4,No
2020/01/22,18:00,0.183,0.162,0.276,0.257,0.254,0.140,0.086,southwest,4.6,No
2020/01/22,18:10,0.182,0.162,0.276,0.257,0.254,0.140,0.087,southwest,4.3,No
2020/01/22,18:20,0.181,0.163,0.276,0.257,0.253,0.140,0.086,southwest,3.5,No
2020/01/22,18:30,0.182,0.162,0.277,0.257,0.254,0.140,0.086,southwest,3.1,No
2020/01/22,18:40,0.182,0.162,0.276,0.257,0.255,0.141,0.085,southwest,2.5,No
2020/01/22,18:50,0.182,0.163,0.276,0.257,0.253,0.140,0.087,southwest,1.9,No
2020/01/22,19:00,0.182,0.163,0.276,0.257,0.254,0.141,0.087,southwest,2.3,No
2020/01/22,19:10,0.183,0.163,0.277,0.257,0.255,0.141,0.086,south-southwest,2.3,No
2020/01/22,19:20,0.182,0.163,0.276,0.259,0.253,0.140,0.087,south-southwest,2.6,No
2020/01/22,19:30,0.181,0.163,0.276,0.256,0.254,0.139,0.086,south-southwest,2.6,No
2020/01/22,19:40,0.182,0.163,0.277,0.258,0.255,0.140,0.086,southwest,2.5,No
2020/01/22,19:50,0.181,0.164,0.276,0.256,0.254,0.140,0.087,southwest,2.9,No
2020/01/22,20:00,0.182,0.163,0.277,0.258,0.254,0.141,0.086,southwest,1.9,No
2020/01/22,20:10,0.182,0.164,0.278,0.256,0.256,0.141,0.086,south-southwest,2.3,No
2020/01/22,20:20,0.181,0.163,0.277,0.258,0.254,0.140,0.087,southwest,2.0,No
2020/01/22,20:30,0.182,0.163,0.277,0.258,0.254,0.140,0.086,southwest,1.7,No
2020/01/22,20:40,0.182,0.163,0.276,0.258,0.256,0.141,0.087,southwest,1.7,No
2020/01/22,20:50,0.182,0.163,0.276,0.258,0.253,0.140,0.086,southwest,2.2,No
2020/01/22,21:00,0.183,0.163,0.276,0.257,0.255,0.141,0.086,south-southwest,1.9,No
2020/01/22,21:10,0.182,0.163,0.278,0.257,0.256,0.140,0.086,southwest,1.6,No
2020/01/22,21:20,0.183,0.162,0.277,0.257,0.253,0.142,0.086,southwest,1.9,No
2020/01/22,21:30,0.183,0.164,0.277,0.256,0.254,0.140,0.087,west-southwest,1.2,No
2020/01/22,21:40,0.182,0.164,0.277,0.259,0.254,0.141,0.086,northwest,1.1,No
2020/01/22,21:50,0.182,0.164,0.278,0.258,0.254,0.140,0.086,north-northwest,1.3,No
2020/01/22,22:00,0.183,0.164,0.276,0.257,0.254,0.141,0.087,north-northwest,1.5,No
2020/01/22,22:10,0.184,0.164,0.277,0.258,0.256,0.141,0.086,northwest,0.9,No
2020/01/22,22:20,0.183,0.163,0.276,0.258,0.254,0.141,0.087,north-northwest,0.7,No
2020/01/22,22:30,0.184,0.164,0.277,0.258,0.253,0.141,0.087,-,CALM,No
2020/01/22,22:40,0.184,0.164,0.278,0.258,0.256,0.141,0.087,north-northeast,0.9,No
2020/01/22,22:50,0.183,0.163,0.279,0.258,0.255,0.141,0.087,north-northwest,1.2,No
2020/01/22,23:00,0.183,0.163,0.277,0.259,0.254,0.141,0.087,northwest,2.5,No
2020/01/22,23:10,0.182,0.163,0.278,0.258,0.255,0.141,0.088,north-northwest,1.3,No
2020/01/22,23:20,0.183,0.164,0.277,0.258,0.253,0.141,0.087,north-northwest,1.7,No
2020/01/22,23:30,0.181,0.164,0.279,0.259,0.254,0.141,0.087,northwest,1.5,No
2020/01/22,23:40,0.183,0.164,0.278,0.258,0.254,0.141,0.087,north-northwest,1.0,No
2020/01/22,23:50,0.183,0.164,0.278,0.257,0.254,0.141,0.087,north-northeast,0.6,No
